STAR ONE D1

Last updated on Tue Oct 15 2024 00:02:40 GMT+0000 (Coordinated Universal Time)

1 41904U 16082B 24288.19840920 -.00000213 00000+0 00000+0 0 9997 2 41904 0.0192 127.7244 0001921 82.1280 160.8347 1.00273322 28642
UTC large
Height (km)
Speed (km/s)
/
Latitude / Longitude
Inclination (degrees)
Orbital Period (minutes)
Azimuth
Elevation
Range (km)
Doppler Factor

Next 0 passes for location: London (51.5072 / 0.1276)

Sorry there are no passes over London.